Date String (YYYY-MM-DD hh:mm:ss) UTC,Instrument flags,absolute air pressure of the measurement (hPa),sample flow rate (lpm),inlet stack bypass flow (lpm),air temperature of the measurement (°C),ambient temperature measured by the external sensor (°C),aerosol sample conditioner tube jacket temperature (°C),OPC LED temperature (°C),internal box temperature (°C),relative humidity of the measurement (%),span deviation,mass concentration of particles derived from Lorenz-Mie calculation of OPC scattering (μg/m³),mass concentration of particles derived from Lorenz-Mie calculation of OPC scattering (μg/m³),mass concentration of particles derived from Lorenz-Mie calculation of OPC scattering (μg/m³)
DateTimeUTC,F1_M11,P_M11,Q1_M11,Q2_M11,T1_M11,T2_M11,T3_M11,T4_M11,T5_M11,U1_M11,ZSPAN_M11,X0_M11,X2_M11,X1_M11
2024-04-19 16:00:00,SystemResetWarning,0833.3,5.00,000.00,019.6,019.0,000.0,028.1,021.4,025.8,0000.0,0002.62,0002.15,0002.01
2024-04-19 16:01:00,SystemResetWarning,0833.4,5.00,000.00,019.6,019.0,000.0,028.1,021.4,025.8,0000.0,0002.47,0002.22,0002.09
2024-04-19 16:02:00,SystemResetWarning,0833.4,5.01,000.00,019.6,019.1,000.0,028.1,021.4,026.0,0000.0,0002.56,0002.31,0002.16
2024-04-19 16:03:00,SystemResetWarning,0833.2,5.00,000.00,019.6,019.1,000.0,028.1,021.4,026.0,0000.0,0002.59,0002.42,0002.26
2024-04-19 16:04:00,SystemResetWarning,0833.4,5.00,000.00,019.6,019.1,000.0,028.1,021.4,026.1,0000.0,0002.80,0002.56,0002.36
2024-04-19 16:05:00,SystemResetWarning,0833.4,5.01,000.00,019.6,019.1,000.0,028.1,021.4,026.2,0000.0,0003.07,0002.71,0002.48
2024-04-19 16:06:00,SystemResetWarning,0833.4,5.00,000.00,019.6,019.1,000.0,028.1,021.4,026.4,0000.0,0003.36,0002.88,0002.60
2024-04-19 16:07:00,SystemResetWarning,0833.3,4.99,000.00,019.6,019.1,000.0,028.1,021.4,026.5,0000.0,0003.55,0003.03,0002.72
2024-04-19 16:08:00,SystemResetWarning,0832.9,5.00,000.00,019.6,019.1,000.0,028.1,021.4,026.7,0000.0,0003.62,0003.12,0002.83
2024-04-19 16:09:00,SystemResetWarning,0833.2,4.99,000.00,019.6,019.1,000.0,028.1,021.4,026.7,0000.0,0003.70,0003.18,0002.95
2024-04-19 16:10:00,SystemResetWarning,0833.4,5.00,000.00,019.6,019.1,000.0,028.1,021.4,026.5,0000.0,0003.72,0003.22,0003.06
2024-04-19 16:11:00,SystemResetWarning,0833.2,5.00,000.00,019.6,019.1,000.0,028.1,021.4,026.5,0000.0,0003.80,0003.27,0003.12
2024-04-19 16:12:00,SystemResetWarning,0833.3,5.00,000.00,019.6,019.1,000.0,028.1,021.4,026.4,0000.0,0003.82,0003.29,0003.15
2024-04-19 16:13:00,SystemResetWarning,0833.1,5.01,000.00,019.6,019.1,000.0,028.1,021.4,026.3,0000.0,0003.86,0003.33,0003.19
2024-04-19 16:14:00,SystemResetWarning,0832.9,5.01,000.00,019.6,019.1,000.0,028.1,021.4,026.4,0000.0,0003.91,0003.36,0003.22
2024-04-19 16:15:00,SystemResetWarning,0832.8,5.00,000.00,019.6,019.1,000.0,028.1,021.4,026.5,0000.0,0003.95,0003.39,0003.25
2024-04-19 16:16:00,SystemResetWarning,0833.1,5.00,000.00,019.6,019.1,000.0,028.1,021.4,026.5,0000.0,0003.94,0003.41,0003.27
2024-04-19 16:17:00,SystemResetWarning,0833.3,5.00,000.00,019.6,019.1,000.0,028.1,021.4,026.5,0000.0,0003.83,0003.41,0003.29
2024-04-19 16:18:00,SystemResetWarning,0833.0,5.00,000.00,019.6,019.1,000.0,028.1,021.4,026.4,0000.0,0003.92,0003.45,0003.32
2024-04-19 16:19:00,SystemResetWarning,0833.0,5.00,000.00,019.6,019.1,000.0,028.1,021.4,026.5,0000.0,0004.06,0003.51,0003.37
2024-04-19 16:20:00,SystemResetWarning,0832.9,5.00,000.00,019.6,019.1,000.0,028.1,021.4,026.8,0000.0,0004.22,0003.56,0003.40
2024-04-19 16:21:00,SystemResetWarning,0833.0,5.00,000.00,019.6,019.1,000.0,028.1,021.4,026.9,0000.0,0004.30,0003.60,0003.44
2024-04-19 16:22:00,SystemResetWarning,0832.9,5.00,000.00,019.6,019.1,000.0,028.1,021.4,026.5,0000.0,0004.43,0003.65,0003.48
2024-04-19 16:23:00,SystemResetWarning,0833.0,5.00,000.00,019.6,019.1,000.0,028.1,021.4,026.4,0000.0,0004.63,0003.68,0003.50
2024-04-19 16:24:00,SystemResetWarning,0833.0,5.00,000.00,019.6,019.1,000.0,028.1,021.4,026.3,0000.0,0005.45,0003.72,0003.54
2024-04-19 16:25:00,SystemResetWarning,0833.0,5.00,000.00,019.6,019.1,000.0,028.1,021.4,026.8,0000.0,0005.58,0003.76,0003.57
2024-04-19 16:26:00,SystemResetWarning,0833.0,4.99,000.00,019.6,019.1,000.0,028.1,021.4,026.9,0000.0,0005.59,0003.77,0003.58
2024-04-19 16:27:00,SystemResetWarning,0833.0,4.99,000.00,019.6,019.1,000.0,028.1,021.4,027.1,0000.0,0005.61,0003.79,0003.60
2024-04-19 16:28:00,SystemResetWarning,0833.2,5.01,000.00,019.6,019.1,000.0,028.1,021.4,026.9,0000.0,0005.60,0003.79,0003.61
2024-04-19 16:29:00,SystemResetWarning,0833.2,5.00,000.00,019.6,019.1,000.0,028.1,021.4,026.8,0000.0,0005.53,0003.77,0003.59
2024-04-19 16:30:00,SystemResetWarning,0833.1,5.00,000.00,019.6,019.1,000.0,028.1,021.4,026.6,0000.0,0005.45,0003.74,0003.57
2024-04-19 16:31:00,SystemResetWarning,0833.0,4.99,000.00,019.6,019.1,000.0,028.1,021.4,026.4,0000.0,0005.38,0003.71,0003.55
2024-04-19 16:32:00,SystemResetWarning,0833.1,4.99,000.00,019.6,019.1,000.0,028.1,021.4,026.2,0000.0,0005.41,0003.69,0003.53
2024-04-19 16:33:00,SystemResetWarning,0833.2,5.00,000.00,019.6,019.1,000.0,028.1,021.4,026.2,0000.0,0005.29,0003.65,0003.49
2024-04-19 16:34:00,SystemResetWarning,0833.2,5.01,000.00,019.6,019.1,000.0,028.1,021.4,026.0,0000.0,0005.91,0003.65,0003.48
2024-04-19 16:35:00,SystemResetWarning,0833.2,5.00,000.00,019.6,019.1,000.0,028.1,021.4,025.9,0000.0,0005.66,0003.64,0003.45
2024-04-19 16:36:00,SystemResetWarning,0833.2,5.01,000.00,019.6,019.1,000.0,028.1,021.4,026.0,0000.0,0005.53,0003.60,0003.41
2024-04-19 16:37:00,SystemResetWarning,0833.1,5.00,000.00,019.7,019.1,000.0,028.1,021.4,026.0,0000.0,0005.40,0003.57,0003.41
2024-04-19 16:38:00,SystemResetWarning,0833.0,5.00,000.00,019.7,019.1,000.0,028.1,021.4,025.7,0000.0,0005.37,0003.54,0003.38
2024-04-19 16:39:00,SystemResetWarning,0833.0,5.00,000.00,019.7,019.1,000.0,028.1,021.4,025.6,0000.0,0005.35,0003.53,0003.37
2024-04-19 16:40:00,SystemResetWarning,0833.3,4.99,000.00,019.7,019.1,000.0,028.1,021.4,025.7,0000.0,0005.42,0003.55,0003.38
2024-04-19 16:41:00,SystemResetWarning,0833.1,4.99,000.00,019.7,019.1,000.0,028.1,021.4,025.8,0000.0,0005.47,0003.57,0003.40
2024-04-19 16:42:00,SystemResetWarning,0832.9,5.00,000.00,019.7,019.1,000.0,028.1,021.4,025.8,0000.0,0005.47,0003.57,0003.41
2024-04-19 16:43:00,SystemResetWarning,0832.9,5.01,000.00,019.7,019.1,000.0,028.1,021.4,025.9,0000.0,0005.43,0003.57,0003.41
2024-04-19 16:44:00,SystemResetWarning,0833.1,5.01,000.00,019.7,019.1,000.0,028.1,021.4,025.8,0000.0,0005.45,0003.59,0003.42
2024-04-19 16:45:00,SystemResetWarning,0833.2,5.01,000.00,019.7,019.1,000.0,028.1,021.4,025.6,0000.0,0005.02,0003.58,0003.42
2024-04-19 16:46:00,SystemResetWarning,0833.1,5.00,000.00,019.7,019.1,000.0,028.1,021.4,025.6,0000.0,0004.10,0003.54,0003.42
2024-04-19 16:47:00,SystemResetWarning,0833.2,4.99,000.00,019.7,019.1,000.0,028.1,021.4,025.6,0000.0,0004.56,0003.55,0003.43
2024-04-19 16:48:00,SystemResetWarning,0833.2,5.00,000.00,019.7,019.1,000.0,028.1,021.4,025.5,0000.0,0005.62,0003.58,0003.45
2024-04-19 16:49:00,SystemResetWarning,0833.2,5.00,000.00,019.7,019.1,000.0,028.1,021.4,025.7,0000.0,0005.70,0003.62,0003.47
2024-04-19 16:50:00,SystemResetWarning,0833.0,5.00,000.00,019.7,019.1,000.0,028.1,021.4,025.8,0000.0,0005.70,0003.63,0003.48
2024-04-19 16:51:00,SystemResetWarning,0833.1,5.00,000.00,019.7,019.1,000.0,028.1,021.4,026.0,0000.0,0005.73,0003.65,0003.50
2024-04-19 16:52:00,SystemResetWarning,0833.1,4.99,000.00,019.7,019.1,000.0,028.1,021.4,026.1,0000.0,0005.74,0003.66,0003.53
2024-04-19 16:53:00,SystemResetWarning,0833.1,5.00,000.00,019.7,019.1,000.0,028.1,021.4,025.9,0000.0,0005.89,0003.70,0003.55
2024-04-19 16:54:00,SystemResetWarning,0833.1,5.01,000.00,019.7,019.1,000.0,028.1,021.4,025.9,0000.0,0006.03,0003.73,0003.57
2024-04-19 16:55:00,SystemResetWarning,0833.2,5.01,000.00,019.7,019.1,000.0,028.2,021.4,025.9,0000.0,0006.09,0003.74,0003.58
2024-04-19 16:56:00,SystemResetWarning,0833.1,5.00,000.00,019.7,019.1,000.0,028.1,021.4,025.6,0000.0,0006.19,0003.77,0003.60
2024-04-19 16:57:00,SystemResetWarning,0833.2,5.00,000.00,019.7,019.1,000.0,028.1,021.4,025.5,0000.0,0006.25,0003.78,0003.61
2024-04-19 16:58:00,SystemResetWarning,0833.1,5.00,000.00,019.7,019.1,000.0,028.1,021.4,025.8,0000.0,0006.17,0003.79,0003.61
2024-04-19 16:59:00,SystemResetWarning,0833.2,5.00,000.00,019.7,019.1,000.0,028.1,021.4,025.9,0000.0,0004.94,0003.81,0003.62
